Theta_e
349 349 350 350 351 349 349 350 350 350 350 350 349 349 350 350 349 350 350 349 350 351 353 353 354 354 354 355 355 356 357 357 359 360 359 358 358 358 358 357 356 356 356 355 355 355 353 352 352 351 349 347 346 345 343 343 341 340 340 339 338 338 337 335 332 332 337 338 337 338 340 339 339 341 341 341 342 344 346 347 347 345 345 345 345
349 349 350 350 349 349 350 350 350 350 349 349 349 349 349 350 350 350 349 349 350 351 352 353 354 354 354 354 355 356 356 357 358 358 358 357 357 358 357 356 356 356 356 355 355 355 354 353 352 352 351 348 347 345 344 343 342 340 340 338 338 338 338 336 334 333 332 337 337 341 339 340 340 343 341 340 340 343 343 345 346 345 345 345 345
349 350 350 349 349 350 350 349 350 349 349 349 348 349 349 350 351 349 349 350 351 351 351 352 353 354 353 354 354 355 355 356 357 358 358 358 357 357 358 357 356 355 355 355 355 355 354 353 353 353 352 349 348 346 345 345 344 343 342 341 340 340 339 338 337 334 333 335 339 337 339 341 339 341 342 342 343 344 342 342 342 344 345 345 345
349 349 349 349 349 349 349 349 349 349 348 349 348 349 349 349 351 350 350 350 350 352 352 352 353 353 353 353 353 354 354 355 356 357 357 357 357 357 358 358 357 357 356 356 356 355 354 354 354 354 353 350 350 349 347 346 345 344 344 344 342 342 341 339 338 337 338 335 338 338 340 340 341 342 342 342 340 341 341 343 343 342 343 345 345
348 348 348 348 348 349 348 349 348 348 348 348 348 349 349 349 350 350 350 350 350 351 352 353 353 353 352 352 353 353 354 354 355 356 357 358 358 357 357 357 357 357 357 357 357 356 355 354 355 355 354 351 351 350 349 346 345 344 344 344 343 343 343 341 340 339 337 335 337 341 342 341 342 343 342 340 341 341 341 341 341 342 343 342 343
348 348 348 348 348 348 348 348 348 348 348 348 349 349 349 349 349 351 351 351 351 351 352 353 353 352 353 353 353 353 354 354 354 355 355 356 357 357 358 357 357 357 357 357 357 357 356 355 356 356 354 352 352 352 352 350 348 345 344 344 344 344 343 342 342 340 338 337 337 337 340 339 340 341 343 341 340 340 341 341 341 341 341 340 340
348 348 348 348 347 347 348 348 348 348 349 349 349 349 349 350 350 349 351 351 351 351 351 352 354 353 353 354 353 353 353 354 354 355 355 356 356 356 356 357 357 357 357 357 357 357 357 356 356 356 355 354 353 353 353 352 350 349 348 346 345 343 342 342 342 340 339 338 339 339 338 340 340 336 343 341 341 340 338 337 337 342 341 340 340
347 347 348 347 347 347 348 348 349 349 349 350 350 349 350 350 350 351 351 350 351 351 351 351 352 354 354 354 354 355 354 354 354 354 355 355 355 355 356 356 356 356 357 357 357 357 357 357 356 356 356 356 355 355 354 353 352 350 350 349 347 344 342 342 341 339 339 338 337 337 339 338 340 339 340 340 339 338 338 337 335 337 340 341 341
346 346 347 347 347 348 349 349 349 349 350 349 349 349 350 350 351 351 351 351 351 351 352 352 352 352 353 354 354 355 354 353 354 354 354 355 355 355 355 355 355 355 356 356 357 357 358 358 357 357 357 353 346 346 347 346 353 351 351 350 348 345 344 343 342 341 339 338 338 339 338 338 338 338 337 337 336 335 341 340 338 338 340 339 340
346 346 346 347 348 349 349 349 349 349 349 349 349 349 349 350 350 350 350 351 351 351 352 353 352 352 352 353 353 354 354 354 346 335 339 353 355 355 355 355 355 355 355 355 356 356 357 357 358 354 345 343 341 338 336 336 337 348 353 352 349 347 345 343 342 341 340 339 338 338 337 337 337 338 338 339 340 341 339 339 336 338 340 338 339
346 346 346 347 348 349 349 349 349 348 349 349 349 350 350 350 350 350 350 350 350 351 351 350 351 352 352 352 352 353 353 352 336 330 331 334 350 354 354 354 355 355 355 354 354 355 356 357 358 357 350 344 345 336 335 334 334 333 335 338 343 350 347 344 343 343 341 340 340 340 338 337 338 340 339 340 341 340 339 341 338 338 336 335 333
346 346 346 347 348 348 349 349 349 349 349 349 350 350 350 350 350 350 350 350 350 351 350 349 350 351 352 353 352 353 354 339 332 329 329 328 334 353 355 354 354 354 354 354 354 355 355 356 356 357 358 357 357 354 343 333 330 331 331 331 333 334 338 347 347 345 343 341 341 341 340 339 339 340 339 339 339 340 341 340 339 338 337 336 336
347 347 347 348 348 349 349 349 349 349 349 350 350 350 350 350 350 350 349 351 351 350 350 349 349 349 349 350 350 352 353 337 331 328 328 327 327 337 354 354 354 354 354 354 355 355 355 355 355 357 357 348 351 357 357 355 334 328 329 330 330 330 330 330 333 347 350 346 344 343 342 342 340 341 342 342 343 340 341 338 339 338 338 337 335
348 348 348 349 349 349 349 349 349 349 350 350 350 350 350 349 350 351 351 351 350 350 350 350 350 349 349 348 349 350 351 337 329 326 326 325 326 330 350 353 354 354 354 355 355 355 355 355 355 355 357 357 357 357 357 357 357 353 345 341 342 340 331 327 326 327 337 346 347 345 347 346 342 344 346 346 343 340 340 339 340 338 338 336 337
349 349 349 349 350 350 350 350 349 350 350 350 350 350 350 350 350 350 351 350 350 350 350 349 349 350 349 349 349 348 349 333 327 324 323 322 324 327 347 352 353 354 355 355 356 355 356 356 356 356 356 357 357 355 357 356 356 356 355 353 350 348 349 347 341 339 338 339 344 345 346 348 348 348 348 348 346 345 344 343 343 342 341 339 336
349 350 350 350 350 351 350 350 350 350 350 350 350 350 350 350 350 351 351 351 351 351 351 351 350 350 350 350 349 348 349 330 325 323 321 321 323 336 345 349 351 353 354 355 355 356 357 357 356 356 356 357 347 334 340 355 356 354 353 354 355 355 354 344 338 339 344 344 344 344 345 346 339 347 348 348 348 347 345 345 341 338 336 333 332
349 350 351 351 351 352 352 351 351 351 351 350 350 350 350 350 351 352 351 350 350 350 350 350 351 350 350 350 349 348 349 336 324 321 320 319 322 340 344 347 349 350 352 353 355 355 356 357 357 356 357 356 344 332 330 334 353 353 353 353 353 353 353 356 338 329 330 329 329 331 331 331 330 328 326 326 334 341 343 338 337 338 333 331 332
350 351 351 352 352 353 353 352 352 352 352 351 351 351 352 352 352 353 351 350 350 350 351 351 351 351 350 349 349 349 349 340 323 319 318 318 325 342 345 346 347 349 350 352 354 355 355 347 355 356 356 356 338 329 329 334 348 352 353 352 352 352 353 355 354 349 328 325 326 327 327 327 327 326 325 325 324 329 339 336 339 338 334 333 331
350 351 352 353 354 354 354 354 353 352 352 352 352 352 352 352 353 353 352 352 352 352 352 351 351 351 350 350 343 347 349 342 323 319 317 316 325 343 345 346 346 347 349 350 352 353 354 350 345 344 349 348 333 328 326 332 349 352 352 352 350 351 352 354 352 351 351 346 343 340 340 336 337 338 340 329 326 337 339 340 341 338 334 334 334
351 352 353 354 355 355 355 355 354 354 353 353 354 354 354 354 354 353 353 353 353 353 352 352 351 351 351 351 350 349 349 350 343 319 316 314 317 342 347 346 345 347 348 349 350 351 353 354 349 329 325 326 325 324 322 320 345 353 353 352 351 349 353 352 351 351 350 350 350 350 349 349 348 347 347 347 345 341 338 340 341 340 337 335 335
352 353 354 355 355 356 356 356 355 355 355 355 355 355 355 354 354 354 353 353 353 352 352 352 351 351 351 351 351 350 350 350 347 320 315 314 314 323 346 347 348 348 349 349 350 350 351 353 355 338 326 322 320 319 318 317 321 346 353 353 353 350 345 348 349 348 348 347 347 347 348 349 350 351 350 350 349 347 341 337 341 341 339 337 335
351 352 354 355 355 356 357 357 357 356 357 356 355 355 356 356 355 354 354 353 352 352 352 351 351 350 351 351 351 351 350 341 351 324 315 313 312 314 340 348 348 350 349 349 350 351 351 353 354 342 327 322 319 316 314 316 317 331 341 328 328 327 343 346 347 346 346 345 345 344 345 346 346 347 348 349 349 349 350 345 339 341 341 341 339
357 352 352 353 355 356 357 358 357 358 357 357 356 355 356 355 355 355 354 353 352 351 351 351 350 350 350 351 351 351 352 349 332 342 317 312 311 311 319 335 331 348 350 349 350 351 353 354 354 339 325 318 314 312 312 311 314 325 317 316 316 322 336 344 342 340 340 340 340 340 340 341 342 342 343 344 345 348 348 351 349 343 342 343 344
356 356 353 351 353 355 356 358 359 359 359 358 357 356 355 355 355 354 354 352 351 351 351 351 350 349 348 348 349 351 352 352 336 328 331 313 312 311 312 316 324 343 350 350 352 354 354 356 350 323 316 313 313 313 312 312 326 317 313 313 314 322 335 339 339 339 337 336 336 337 339 340 340 340 341 343 344 347 348 350 352 351 347 345 345
355 352 353 352 351 353 354 356 358 358 359 358 357 356 356 356 354 354 353 352 351 350 350 350 349 349 348 348 349 350 351 351 351 336 324 318 312 311 312 313 315 318 341 350 353 355 321 310 309 310 309 308 309 313 313 312 309 309 309 310 321 328 330 335 338 338 337 337 338 339 339 340 341 341 343 344 344 345 345 346 347 348 349 350 348
355 354 350 350 351 351 352 353 355 357 358 358 358 357 356 355 354 353 352 351 351 350 350 349 348 349 348 349 348 349 351 351 352 351 334 327 320 313 313 314 316 317 325 339 329 316 315 317 315 319 322 327 340 344 344 341 327 323 320 320 330 332 333 333 336 336 337 339 338 338 339 342 341 342 343 343 341 340 341 340 340 340 342 341 340
356 353 352 349 349 350 350 350 352 354 355 356 357 358 357 356 354 352 352 351 351 350 350 349 348 348 347 349 349 349 350 352 352 353 350 344 340 333 323 322 318 319 325 329 326 331 332 333 337 328 329 326 329 328 329 333 338 339 338 338 338 338 337 336 336 338 339 340 339 339 341 341 342 340 339 339 338 339 341 339 337 337 338 338 337
348 347 348 348 349 349 351 355 354 352 354 355 355 356 357 356 354 352 351 352 351 350 350 349 348 348 348 349 350 351 351 352 353 354 352 348 346 343 337 333 332 330 330 332 335 337 340 334 332 341 339 339 340 340 339 338 337 336 337 336 336 338 337 336 337 341 341 340 339 340 339 339 337 336 337 336 336 336 337 335 333 333 334 334 332
348 345 346 350 351 354 352 357 355 347 330 319 313 312 316 325 348 346 334 338 354 353 352 352 352 353 352 352 351 350 352 351 352 337 351 333 344 345 341 338 338 337 333 326 338 340 340 339 340 340 340 336 335 334 333 333 331 331 331 332 332 332 332 334 332 332 333 333 333 333 332 332 332 333 332 331 331 330 332 331 331 331 331 331 329
344 344 345 347 353 355 355 353 344 336 331 325 320 317 310 301 306 335 333 322 312 316 333 353 356 355 354 337 335 352 354 354 310 312 313 314 316 320 322 321 321 331 321 318 333 338 337 336 336 335 333 333 331 330 329 329 328 327 328 323 328 328 327 328 328 328 328 328 328 328 328 327 327 327 327 326 327 327 328 324 327 328 327 327 326
343 342 344 347 349 354 352 346 342 338 334 335 335 332 328 320 301 298 304 307 302 298 304 313 322 330 347 334 312 301 303 300 299 298 298 298 299 300 303 306 306 304 309 331 337 335 332 331 330 331 331 331 328 327 327 326 325 326 325 325 326 325 325 326 325 325 325 325 325 325 324 324 323 324 323 323 323 323 324 325 326 326 325 325 325
341 341 342 347 351 352 348 343 339 337 336 336 335 335 335 331 323 304 298 301 300 297 296 296 302 310 316 318 316 315 302 297 297 298 298 299 299 298 299 301 303 307 310 317 331 330 330 329 328 327 327 326 325 325 325 325 324 324 325 324 324 325 325 324 323 324 323 323 322 322 322 322 322 321 321 321 321 322 322 322 322 322 323 324 324
342 341 343 349 352 349 344 341 339 339 338 336 336 338 337 336 328 322 315 303 300 299 297 298 298 298 299 299 302 304 301 298 298 298 299 299 300 300 300 301 303 307 315 326 328 326 326 326 325 324 324 324 324 324 324 324 324 324 325 324 324 324 324 324 325 324 322 322 322 322 321 321 321 320 320 321 320 320 321 320 321 321 321 321 322
344 342 344 347 348 346 343 341 340 339 339 337 337 337 338 336 331 329 328 327 324 313 304 300 299 299 297 298 299 298 299 300 300 300 301 302 303 306 307 310 303 305 314 327 325 323 323 323 322 322 322 324 324 324 324 324 325 325 325 324 324 324 324 325 324 322 322 322 321 321 321 321 320 320 319 319 320 320 319 319 320 319 319 319 319
341 347 349 347 345 344 342 340 337 336 335 335 335 335 333 334 334 332 330 328 325 323 322 317 304 299 306 302 298 298 298 299 300 301 302 304 306 306 311 327 327 326 326 326 325 324 322 322 322 322 324 324 324 324 324 325 324 324 323 323 323 323 323 323 323 323 323 323 323 322 322 321 321 320 319 318 318 318 318 318 318 318 318 318 318
337 338 339 340 338 338 337 336 336 335 333 333 334 334 335 334 331 328 325 326 324 321 320 319 317 308 301 297 296 299 300 301 302 303 303 304 307 313 326 325 325 324 324 324 323 321 322 323 324 324 325 325 325 325 325 324 324 324 323 322 321 322 322 322 322 322 322 322 322 322 319 322 321 320 320 319 318 317 318 317 317 317 317 317 318
335 336 336 335 334 334 333 333 333 332 330 331 331 331 332 331 330 329 328 326 326 325 324 325 326 325 321 321 311 303 303 304 304 304 304 306 309 321 325 325 324 323 323 323 323 324 325 324 325 326 326 325 325 325 325 324 323 323 319 322 321 321 321 321 321 321 321 321 322 322 322 322 321 321 319 317 317 318 317 317 317 316 316 315 313
332 334 335 334 334 334 333 332 332 331 332 332 332 332 331 330 330 330 328 327 327 325 324 324 324 323 322 323 327 325 321 311 311 311 311 310 318 323 323 323 323 322 321 322 323 323 323 323 325 326 325 325 324 324 323 322 322 321 320 321 321 321 315 319 320 321 321 321 321 321 321 321 321 321 319 318 318 317 316 316 315 315 315 315 315
330 324 324 326 329 334 333 333 332 331 332 332 331 330 328 326 325 323 321 321 320 320 319 318 318 319 321 324 325 327 324 325 323 322 323 323 324 324 324 323 323 323 324 324 324 325 325 325 325 326 325 324 323 322 322 321 321 321 320 320 320 320 319 319 319 319 320 319 319 320 320 321 321 320 320 319 318 317 317 316 315 315 314 314 315
330 330 327 325 330 331 333 334 333 333 332 329 327 327 326 325 322 320 319 318 316 315 314 313 313 313 315 320 323 325 323 322 322 322 322 322 322 322 323 322 322 321 322 322 323 324 325 325 325 324 323 322 321 321 321 321 320 320 320 319 318 318 318 319 319 319 318 319 319 319 320 320 320 320 320 319 318 318 317 316 316 315 315 315 315
328 329 330 325 326 330 333 332 330 329 328 327 326 325 323 322 321 321 318 317 316 315 314 312 311 311 311 307 306 311 319 319 319 319 319 319 318 317 316 315 315 315 315 315 315 317 320 320 320 319 319 319 320 320 321 320 320 320 319 318 318 317 318 319 318 319 319 319 320 320 320 320 319 319 318 318 313 315 318 317 316 316 316 316 316
326 325 326 326 326 328 328 328 327 327 327 325 323 322 322 321 320 319 318 317 316 314 312 311 311 310 306 302 302 304 314 316 316 315 315 315 314 313 312 311 311 311 310 310 310 311 312 313 312 312 311 311 313 315 317 318 318 318 317 317 316 316 316 316 317 318 319 319 320 320 320 319 318 318 319 312 319 318 317 317 316 316 315 315 315
325 325 325 325 325 324 324 323 323 323 322 321 321 322 320 318 317 317 315 315 314 313 311 310 310 311 309 304 306 306 312 313 314 312 312 311 310 309 308 308 308 307 307 307 307 308 309 309 309 308 308 308 308 308 309 311 312 313 313 313 313 313 314 314 315 315 316 317 319 319 320 320 319 319 319 319 318 318 317 317 316 315 315 315 315
323 323 323 322 323 322 322 321 320 320 319 320 319 318 316 316 315 314 313 312 311 311 310 310 310 309 308 308 306 308 309 309 309 309 309 309 308 307 306 305 305 305 305 305 305 305 306 306 306 306 306 306 306 306 306 307 308 307 306 306 307 307 308 308 309 309 311 314 316 318 320 320 319 319 318 318 318 317 316 316 315 314 314 314 314
321 320 319 319 319 318 318 319 318 318 318 316 315 314 315 313 312 312 312 311 311 310 309 308 308 308 307 307 307 306 306 307 308 307 306 306 306 305 305 304 303 303 302 302 302 303 303 303 303 303 302 303 303 303 303 304 305 304 303 302 302 301 301 301 302 302 304 309 314 317 319 320 320 319 319 319 318 318 316 316 315 314 314 313 313
318 318 317 316 316 316 315 315 315 313 313 312 311 311 311 311 310 310 310 309 308 307 306 306 306 306 305 305 305 305 304 304 304 305 305 304 304 303 303 303 302 301 301 301 301 300 301 301 300 300 300 300 300 301 302 302 301 301 301 301 300 300 300 299 300 300 302 306 310 313 316 318 320 320 320 321 319 318 318 318 317 316 315 314 314
317 316 316 315 314 314 314 313 312 311 310 310 310 310 310 309 309 309 308 307 306 306 305 304 304 303 303 303 303 303 303 303 302 303 303 303 303 303 302 302 301 300 299 299 299 299 299 299 299 299 298 298 299 299 299 300 299 299 299 299 298 297 297 297 298 299 302 304 305 307 312 316 319 320 319 319 320 319 318 317 317 317 317 316 316
315 316 315 314 313 312 312 311 310 311 309 308 307 307 307 306 306 306 305 305 304 304 303 303 302 302 302 301 302 301 301 301 301 302 301 301 301 301 301 301 301 300 300 299 298 298 298 298 298 298 297 297 297 297 298 297 297 298 297 297 296 296 295 295 296 299 301 301 302 305 309 313 318 320 320 320 320 319 319 319 318 318 317 317 316
314 313 311 311 310 310 309 308 308 307 306 306 305 304 304 303 303 302 302 302 301 302 301 301 301 301 300 300 300 300 300 299 298 298 298 299 299 299 299 299 299 299 298 298 297 297 297 296 297 297 297 296 296 297 297 296 296 295 295 295 293 293 291 292 294 298 296 299 303 305 308 311 314 317 319 318 320 320 319 319 318 317 318 317 317
310 310 309 309 307 306 306 305 304 303 303 303 302 301 301 301 300 300 299 299 299 299 299 299 299 298 298 298 298 297 297 297 296 296 296 297 297 297 297 297 296 296 296 296 295 295 295 295 295 295 295 296 296 296 297 297 296 295 294 293 291 290 290 291 293 294 296 299 300 305 308 309 312 315 317 317 318 318 319 319 318 317 318 318 317
309 307 307 306 305 304 303 302 301 300 300 299 299 298 298 297 297 297 297 296 296 296 296 296 297 297 297 297 297 296 296 296 296 295 295 295 295 296 296 295 295 294 294 294 294 294 294 294 294 294 294 294 294 295 296 296 295 294 292 291 289 290 290 290 292 290 292 295 303 309 312 313 313 313 314 315 316 317 316 317 316 316 316 317 317
Wind_Speed
16 14 13 13 13 14 14 13 13 12 12 12 12 11 10 10 10 10 7 8 8 9 10 10 10 10 9 9 8 9 8 7 6 6 8 8 8 8 7 8 9 7 5 6 6 6 6 7 7 7 5 6 5 4 4 5 5 5 5 5 5 5 6 6 7 11 7 4 5 4 1 2 4 6 7 6 6 6 7 8 7 7 7 7 8
15 14 13 13 15 14 14 13 13 11 12 12 12 11 10 10 10 8 9 9 9 10 11 9 9 10 9 9 9 9 9 9 7 6 7 9 8 6 7 9 9 7 6 7 7 5 6 7 7 7 6 7 5 5 5 5 5 5 6 6 7 6 6 7 8 6 13 4 5 2 4 4 5 3 8 8 8 5 7 7 6 7 7 7 7
16 14 14 14 15 14 13 13 12 13 14 12 11 11 10 10 9 10 10 8 9 10 10 10 10 10 9 9 9 9 9 8 7 7 7 8 8 8 8 8 7 7 8 8 7 6 7 7 8 6 4 6 6 6 5 7 5 7 7 6 7 6 6 8 6 8 10 11 5 6 6 4 7 7 7 6 6 4 6 7 7 6 7 8 8
15 15 14 14 15 14 13 13 13 13 13 12 13 12 10 9 9 10 10 8 8 9 10 10 9 9 10 10 10 10 9 8 7 8 8 8 8 8 7 7 7 8 8 8 7 7 8 7 8 6 5 6 7 6 6 6 7 6 7 6 7 7 6 6 8 9 7 10 7 6 4 5 6 6 4 3 4 4 6 5 5 7 8 7 8
15 15 16 15 15 14 14 13 14 15 14 11 13 12 11 9 9 10 9 9 10 9 9 9 9 9 10 11 11 10 10 10 9 8 8 8 8 8 8 7 8 8 8 8 8 8 8 9 8 5 6 7 7 7 6 7 6 6 7 6 6 6 5 6 7 6 8 11 11 5 3 4 4 4 3 5 5 5 5 6 7 6 6 8 7
16 15 14 15 15 15 15 14 15 15 14 13 13 12 11 11 10 9 10 11 11 10 10 9 9 11 11 11 11 11 10 10 10 10 9 8 8 8 8 7 8 8 8 8 8 8 8 8 8 6 7 9 8 7 6 8 6 7 8 7 6 6 6 7 6 6 7 10 10 11 6 6 6 5 4 4 5 6 6 6 6 6 6 7 8
15 15 15 15 15 16 15 16 14 14 15 14 13 12 12 11 10 11 10 11 11 10 10 10 10 11 11 11 11 11 10 10 10 10 9 9 9 9 8 8 8 7 8 8 9 9 9 8 8 7 9 9 9 8 7 7 6 7 8 6 6 6 7 6 5 6 7 7 7 7 8 6 4 9 3 3 5 6 7 8 9 6 6 7 8
15 15 15 15 15 16 15 15 14 14 13 13 13 13 12 12 12 11 10 12 11 12 11 12 11 10 11 11 11 10 10 9 10 10 10 10 9 9 9 8 8 8 8 8 9 9 9 9 9 8 9 9 9 8 7 7 5 7 6 5 5 7 7 6 5 6 6 7 7 9 7 7 4 5 3 2 4 6 7 7 11 10 7 6 7
16 16 15 15 16 15 14 13 12 13 13 13 13 13 13 12 12 11 11 11 11 11 11 11 11 11 11 11 11 10 10 10 9 9 10 10 10 9 9 8 9 8 9 9 9 9 9 9 9 9 11 13 14 12 10 9 7 8 8 6 6 7 7 6 6 5 6 7 8 8 8 7 6 6 6 6 9 14 7 6 8 8 7 4 5
15 15 16 16 15 14 13 12 12 12 12 13 13 12 12 12 12 12 12 12 11 11 10 11 10 11 12 12 11 10 10 9 11 16 14 11 10 9 9 10 10 10 10 9 9 9 9 9 9 13 14 15 15 15 15 15 15 12 11 7 7 7 7 6 6 7 7 7 8 8 8 10 8 9 9 9 9 6 6 5 7 6 4 7 6
15 15 16 15 14 13 12 12 12 13 13 12 11 12 12 11 11 12 12 12 12 11 11 11 11 11 12 11 11 10 10 10 15 15 17 17 12 10 10 10 9 9 9 10 11 9 8 8 8 11 12 12 14 16 16 17 17 18 19 17 12 10 7 7 8 7 7 8 8 8 9 12 11 9 9 9 7 7 7 5 6 4 6 6 10
16 15 15 13 13 13 12 12 12 13 12 13 13 12 11 12 12 12 12 13 12 11 12 13 13 12 11 11 11 10 11 13 15 15 17 17 15 12 9 8 8 9 9 9 10 8 8 8 8 7 8 11 10 10 13 16 17 18 19 18 18 18 17 13 11 9 9 8 8 10 8 12 13 8 9 8 10 8 6 6 6 6 7 7 6
15 14 13 14 14 13 12 13 13 13 13 13 12 11 12 12 13 13 13 13 12 12 13 13 13 12 12 13 12 12 11 13 16 17 17 17 18 15 10 10 9 9 10 10 10 11 10 9 8 8 8 13 11 10 9 11 14 19 19 18 18 19 19 20 18 15 12 11 13 13 12 12 13 12 11 11 8 10 7 6 6 7 6 6 9
14 14 14 14 14 13 14 14 14 14 13 13 13 13 13 14 14 13 12 11 12 12 13 14 13 13 13 13 13 11 12 14 17 17 17 18 18 15 10 12 11 11 12 11 10 11 11 10 10 10 9 9 9 9 9 10 9 8 9 9 10 16 18 19 19 20 17 14 14 16 14 11 15 14 12 9 10 11 10 9 6 5 4 5 8
13 13 14 13 13 13 14 14 14 14 14 14 13 14 14 13 14 13 11 12 13 14 14 14 14 13 13 13 12 12 11 16 16 17 18 18 18 14 9 9 10 12 12 12 13 12 12 11 11 11 12 10 10 11 9 9 9 8 8 9 10 11 10 11 11 11 10 11 15 16 18 15 16 17 14 10 12 12 11 8 4 4 3 3 11
15 14 14 15 15 14 15 14 14 14 14 14 14 14 14 14 14 13 12 12 12 11 11 12 13 13 13 13 12 14 12 16 17 17 18 17 17 10 8 9 10 12 13 13 13 12 11 11 12 12 13 12 13 15 14 11 9 11 13 10 11 12 10 10 14 14 13 12 13 15 16 17 19 18 15 11 10 9 3 6 2 6 6 11 15
14 15 14 14 14 14 15 15 15 15 14 14 15 14 14 14 13 11 12 12 11 11 12 10 11 11 13 13 14 14 13 15 17 18 17 17 12 8 8 8 9 11 13 13 12 12 12 12 12 12 12 12 13 15 16 14 12 14 12 12 12 11 10 9 14 19 20 22 24 23 23 23 23 24 21 14 12 4 7 4 8 7 8 11 15
14 14 14 14 15 15 15 15 15 15 14 15 15 14 14 13 13 12 13 13 12 12 10 11 11 11 13 13 13 12 11 13 15 16 17 17 15 9 8 8 10 11 12 12 11 11 13 16 15 13 13 13 14 15 15 13 10 13 12 11 12 12 11 10 10 11 17 21 23 23 22 21 22 23 21 15 14 6 5 13 11 6 8 11 14
13 14 14 14 14 14 14 15 15 15 14 15 15 15 15 14 14 12 11 11 11 11 11 10 11 11 11 12 14 15 11 12 15 17 18 18 15 10 10 9 10 11 10 11 11 11 11 12 16 16 15 15 17 15 17 13 11 11 13 10 11 11 13 14 13 12 8 7 9 8 13 15 15 14 15 17 10 13 13 15 12 9 13 15 13
14 14 14 13 13 13 13 14 14 14 15 15 14 14 13 12 11 10 10 10 10 10 10 10 11 10 10 11 10 11 12 12 13 17 18 18 19 12 9 10 11 12 10 10 10 11 10 10 11 15 19 20 19 18 16 17 12 11 9 9 9 14 13 11 13 10 7 6 8 8 11 10 8 8 8 8 7 13 14 14 13 12 13 15 14
12 12 11 12 12 13 12 13 15 14 14 14 14 13 11 12 12 12 11 10 11 11 11 10 10 11 10 11 9 10 11 12 13 16 17 18 19 17 11 12 12 11 10 10 9 9 9 8 8 13 18 19 19 19 18 17 15 11 11 9 12 7 6 11 16 13 12 11 8 10 10 8 8 8 8 9 8 8 9 13 13 13 13 13 14
10 10 11 12 12 13 13 13 14 13 13 12 11 12 11 12 11 12 10 11 12 12 11 10 10 10 9 9 10 11 11 15 12 14 18 19 20 22 12 12 13 11 11 10 9 9 9 9 10 12 16 17 16 16 16 15 14 9 10 15 7 14 10 14 13 9 11 9 9 10 9 10 9 8 8 9 10 8 7 8 12 14 14 15 15
8 9 9 11 11 12 12 13 12 11 12 13 13 13 12 12 12 11 11 11 11 12 12 10 10 10 9 8 8 9 9 10 16 13 17 20 21 21 23 17 16 12 10 11 10 11 10 9 10 12 11 11 10 10 11 10 7 8 14 12 8 10 10 9 9 12 13 10 10 11 11 9 9 9 7 9 10 9 9 9 9 12 14 15 16
8 9 9 10 10 11 12 13 13 12 14 13 13 13 12 11 11 10 11 11 10 11 9 9 8 9 8 9 8 8 8 9 12 17 14 20 20 23 23 23 18 12 11 10 10 8 9 7 2 4 4 4 3 4 7 6 5 6 8 11 5 12 9 8 6 12 13 8 8 8 8 7 6 7 7 7 8 7 8 9 10 10 11 12 14
7 7 8 10 11 12 12 12 13 14 13 13 12 12 12 11 10 10 9 10 10 10 9 9 9 9 9 9 8 7 8 8 8 12 17 17 20 21 22 22 21 19 12 10 10 5 5 9 8 7 8 8 9 7 5 5 6 7 6 3 8 8 8 8 11 10 8 8 8 7 7 7 6 6 6 9 10 9 7 8 8 9 10 10 12
6 7 7 7 9 9 10 11 11 12 12 11 11 11 12 12 11 10 10 10 10 9 9 8 8 8 8 8 8 8 8 7 8 7 9 13 14 19 21 21 21 21 17 11 4 3 4 5 6 6 6 5 2 1 1 1 3 3 4 6 6 6 7 9 10 8 8 7 6 7 8 6 7 7 7 8 9 11 10 10 11 10 8 9 11
5 4 5 5 6 8 10 10 9 9 8 8 8 8 8 9 9 9 9 8 8 9 8 8 7 7 8 8 8 8 8 7 7 6 7 7 8 9 10 10 12 7 7 9 11 8 5 4 2 3 3 3 2 2 2 2 3 4 4 3 3 5 6 7 9 9 7 6 5 6 7 9 9 9 8 9 10 10 7 9 11 12 10 10 10
6 6 7 6 6 8 8 10 9 6 4 4 4 5 5 6 8 9 10 10 9 9 9 9 9 9 8 8 7 6 6 7 6 7 8 8 7 7 7 6 7 7 7 6 5 4 3 3 3 2 3 4 4 4 4 4 5 5 5 5 4 3 4 2 3 5 6 6 7 9 9 9 10 10 10 10 11 11 10 10 10 13 11 12 12
3 2 1 5 6 6 7 7 6 6 7 8 7 5 2 1 3 4 3 1 8 9 8 8 8 7 8 8 8 7 6 7 11 9 9 10 10 8 7 7 7 6 7 5 4 4 4 4 4 3 4 5 4 4 4 4 5 4 5 5 5 5 4 3 3 1 2 3 4 6 7 8 8 8 9 10 11 12 12 11 11 12 13 11 12
4 4 2 1 3 5 5 5 6 7 7 6 6 8 11 9 7 2 3 1 2 2 7 9 8 7 7 3 2 8 8 6 6 8 7 7 5 6 4 4 5 5 9 13 7 5 4 5 4 4 5 4 4 4 4 3 2 2 5 5 5 5 5 5 4 2 2 3 4 5 6 7 8 8 8 9 10 10 11 11 12 11 12 12 14
4 3 3 2 4 5 7 7 7 8 8 8 7 8 6 10 16 15 10 8 7 8 5 0 6 11 11 7 3 8 5 8 10 10 10 9 9 9 9 10 11 12 13 10 5 5 6 6 5 4 4 4 5 4 4 3 3 4 5 5 4 5 5 5 4 3 3 3 3 4 4 5 6 7 8 9 9 10 11 11 11 12 12 12 12
4 3 2 2 5 7 7 8 9 9 8 7 8 8 8 8 8 14 15 14 15 15 14 14 11 7 8 11 9 4 8 9 11 12 13 14 14 14 14 14 14 13 9 8 8 7 5 6 6 5 5 5 4 4 4 4 5 5 4 4 5 5 5 6 6 5 5 4 4 4 5 5 5 6 7 8 8 9 10 11 10 10 11 12 13
5 4 3 5 6 8 8 8 9 9 10 9 8 8 8 8 9 8 10 16 19 18 17 16 16 14 14 13 12 12 11 11 13 13 13 14 16 17 17 15 13 13 16 11 9 8 7 6 6 5 4 6 5 5 5 5 5 5 4 5 5 5 6 6 5 5 4 4 5 5 6 6 6 7 7 8 8 10 9 10 11 10 11 12 13
5 4 5 6 7 7 7 8 8 8 8 8 8 7 7 8 9 10 10 9 11 15 17 17 16 20 18 17 16 15 14 16 16 16 15 14 16 17 17 14 15 14 13 9 9 7 7 7 6 5 4 4 4 4 5 5 5 4 4 5 5 5 5 4 4 5 5 4 5 6 7 7 8 8 9 9 9 9 10 11 11 11 12 12 14
6 9 12 8 7 6 7 7 7 8 6 5 5 7 9 8 8 8 9 10 9 9 7 10 14 16 14 12 14 14 12 14 16 15 15 14 14 14 13 12 10 8 9 7 7 7 6 5 5 4 4 4 4 4 4 5 5 5 6 5 5 4 4 4 4 3 3 4 4 5 6 7 8 8 9 10 11 10 11 13 12 13 14 15 15
6 6 7 8 8 7 7 7 7 6 6 6 6 7 7 7 7 8 9 10 10 11 11 9 7 10 17 14 12 14 17 18 18 18 17 16 13 13 11 8 9 7 7 6 6 5 5 4 5 5 5 4 4 4 5 5 5 5 5 4 4 3 4 4 4 4 4 4 4 5 6 6 6 8 10 10 11 11 11 11 11 12 12 12 13
7 6 5 5 7 8 8 7 7 7 7 8 9 9 9 9 8 8 9 11 12 11 11 8 8 10 11 9 11 14 18 20 20 18 18 19 19 13 8 7 7 6 7 6 5 4 5 4 4 5 4 4 4 4 5 5 5 4 4 3 2 2 3 3 4 5 5 4 4 4 5 5 6 6 8 10 10 10 10 10 10 10 11 14 14
8 7 5 6 6 7 8 8 8 10 9 9 8 9 11 11 11 8 9 9 8 8 8 9 9 8 9 7 6 7 11 15 19 16 14 15 12 8 8 7 8 8 8 6 6 5 4 3 3 5 4 5 5 5 4 4 3 3 2 1 1 2 3 3 4 5 5 4 4 5 5 6 6 6 7 7 7 9 10 11 10 12 12 13 12
10 12 12 9 8 7 7 8 9 10 10 10 10 10 11 11 11 10 9 9 9 9 10 9 8 8 6 4 5 6 11 10 11 11 9 9 9 7 8 7 7 8 7 6 4 5 4 5 5 5 5 5 5 4 3 3 2 2 1 2 2 3 4 5 5 5 6 6 6 6 6 5 5 6 6 6 7 7 8 11 11 12 12 12 11
10 8 8 11 8 8 8 8 9 10 10 11 11 10 10 9 11 11 11 10 9 8 9 10 9 7 6 5 6 8 10 10 9 8 9 9 8 9 8 8 8 7 7 7 7 6 6 6 6 5 5 5 5 4 3 3 3 3 3 3 3 4 4 4 5 6 6 6 5 5 4 5 6 6 6 6 7 7 7 8 9 10 11 11 11
6 7 7 7 8 8 7 8 8 8 9 9 9 10 10 10 10 10 11 11 11 11 10 9 8 7 8 10 12 11 9 8 8 9 8 9 9 9 9 8 8 7 7 7 7 8 8 8 7 7 6 6 6 5 5 4 4 4 4 3 3 3 4 4 5 5 4 3 3 3 4 5 5 6 7 7 7 7 6 6 6 6 7 8 10
10 9 9 8 8 8 8 8 8 10 9 9 9 10 10 10 10 10 11 11 9 8 8 9 8 7 11 17 15 14 10 8 8 8 8 8 8 8 8 8 7 7 7 7 7 7 6 6 7 7 7 7 7 6 6 6 5 5 4 4 4 4 5 5 5 5 4 4 4 3 4 4 5 5 5 6 6 6 6 6 6 6 7 7 8
8 8 8 7 7 7 7 8 7 9 11 12 12 12 12 13 11 11 10 10 10 9 9 9 8 8 9 12 13 12 9 8 9 9 8 8 8 8 8 7 7 7 7 7 7 6 6 6 7 6 7 8 8 8 8 8 8 7 7 6 6 6 6 6 5 5 5 5 5 4 4 4 4 4 5 5 6 6 6 6 6 7 7 7 7
8 8 8 8 8 8 7 8 11 11 12 15 15 12 11 11 11 12 11 11 10 10 9 9 8 8 7 7 9 10 9 9 8 8 8 8 8 7 7 6 6 6 7 7 7 7 7 7 7 7 7 7 7 8 8 8 8 8 8 8 7 8 7 7 7 7 7 6 6 5 4 3 2 3 4 4 5 5 6 6 7 6 6 6 7
8 8 8 8 7 7 7 6 11 13 14 12 12 12 12 11 12 11 11 11 10 10 9 8 9 9 9 9 9 9 9 9 8 8 8 8 8 8 7 7 7 7 7 8 8 8 8 8 7 7 7 7 7 7 7 7 7 7 7 8 7 7 7 8 8 8 8 8 7 6 4 3 3 2 3 3 3 4 4 5 5 5 5 5 5
8 8 8 8 9 8 8 7 8 8 8 9 10 12 12 11 11 11 11 10 10 9 9 9 9 9 9 8 9 9 8 8 8 8 8 8 7 7 7 7 7 7 7 7 8 9 8 8 8 8 8 7 7 6 5 6 6 7 7 7 6 6 6 7 8 7 7 7 8 7 7 5 3 2 2 2 2 2 2 3 3 3 3 3 4
9 8 9 9 10 10 9 8 7 8 8 9 10 13 12 12 11 11 11 11 11 10 9 9 9 8 9 9 9 9 9 9 8 8 8 7 7 6 6 6 6 7 7 7 8 8 9 9 8 8 8 9 8 8 7 7 7 6 7 6 6 7 7 8 7 7 7 7 7 7 7 6 5 4 3 2 1 0 0 2 3 4 3 3 2
9 8 8 8 8 9 8 9 10 10 9 9 9 10 11 11 10 10 9 10 10 9 9 9 9 9 9 8 8 8 8 8 8 8 7 7 6 6 6 6 6 6 6 7 8 8 8 8 9 9 9 10 10 9 8 7 7 7 7 8 8 10 12 12 8 7 7 8 7 7 7 7 6 5 3 2 2 2 1 2 2 2 3 2 2
9 9 10 8 7 7 7 8 8 8 9 9 10 10 10 10 9 9 9 9 9 8 8 8 8 8 8 8 7 7 7 7 7 7 7 6 6 6 7 7 8 8 8 8 9 9 9 9 9 8 8 9 9 9 8 8 8 8 8 8 12 18 15 14 9 8 11 8 7 7 6 6 7 6 4 3 3 3 3 2 2 2 3 2 2
8 8 10 11 10 10 9 9 10 9 9 9 10 10 9 9 9 9 9 9 9 9 8 9 9 8 7 7 7 7 7 7 7 6 6 6 7 7 7 8 8 8 8 8 8 8 8 8 8 7 7 7 8 9 8 8 8 8 7 10 17 17 17 16 13 13 11 7 8 6 5 5 6 6 5 4 4 4 5 5 4 3 2 2 2
10 10 10 9 9 9 8 9 9 9 9 9 10 10 10 9 9 9 8 9 8 8 8 8 8 8 8 7 7 7 7 7 7 7 7 7 7 7 7 8 8 8 8 8 7 7 7 7 7 8 8 8 8 8 7 7 8 9 12 15 16 17 18 16 12 14 15 9 5 5 5 6 5 6 6 5 4 4 6 6 5 5 4 3 3
Wind_Direction
188 191 186 192 190 191 193 193 197 196 194 193 196 198 197 197 197 201 184 196 189 195 200 202 201 203 203 204 205 206 208 208 204 201 211 215 217 217 215 212 220 224 207 215 214 216 219 228 230 223 192 205 208 188 189 191 191 202 188 191 205 179 181 199 232 265 272 198 247 251 243 207 244 211 230 233 230 219 224 231 228 229 230 232 236
188 187 188 190 192 192 193 194 194 193 195 195 200 199 198 198 198 188 193 198 190 197 203 204 204 205 203 207 208 208 209 211 202 193 209 216 217 212 214 214 218 215 207 221 214 215 216 227 236 230 193 214 211 205 194 189 194 194 203 197 206 196 190 197 228 234 270 247 256 213 245 184 248 187 216 224 233 205 220 225 225 224 229 231 233
186 186 187 188 192 192 191 193 191 193 195 197 200 198 198 198 191 193 199 195 195 200 203 204 203 203 206 208 209 211 209 207 201 200 207 210 211 213 213 206 206 209 212 221 218 209 218 223 233 226 199 217 220 220 195 203 195 202 211 202 214 207 189 202 206 239 252 269 227 253 237 209 212 239 220 235 242 206 223 228 226 225 226 229 232
184 184 186 190 190 188 191 192 191 193 195 198 199 200 195 195 189 197 198 195 196 205 205 204 203 202 206 210 210 213 210 207 201 202 207 207 212 213 207 210 213 214 218 221 217 211 220 227 232 219 207 223 228 219 210 205 203 209 216 213 215 222 202 193 216 233 254 272 254 216 232 224 246 248 252 255 252 234 227 243 233 235 232 225 228
183 185 187 187 187 190 192 190 193 196 199 198 200 196 194 190 189 195 192 199 204 202 206 203 204 204 208 211 212 212 213 207 204 203 207 209 212 212 212 213 215 218 219 223 222 220 223 227 235 213 204 226 232 226 212 208 212 212 223 218 216 224 211 207 219 220 248 258 273 255 220 237 249 264 215 239 245 242 239 235 231 234 235 236 235
184 184 185 187 189 191 192 193 195 197 198 200 201 199 196 195 192 192 193 200 202 202 204 203 205 210 213 214 214 216 213 209 208 208 206 206 211 215 218 217 219 221 223 225 224 222 227 229 229 214 212 222 236 233 221 221 207 214 220 222 222 216 223 223 214 224 230 255 263 278 262 259 266 241 207 209 244 261 254 241 243 236 233 242 235
183 184 186 189 190 193 193 196 196 196 198 201 200 199 200 196 194 196 195 200 200 201 202 204 208 211 216 216 218 217 215 212 211 210 209 208 211 214 218 219 222 222 226 226 227 227 229 230 228 216 222 227 235 236 230 227 219 226 223 222 211 211 227 228 217 222 230 247 260 252 270 256 227 270 243 189 232 238 259 269 258 220 218 226 249
183 185 186 190 192 194 196 195 195 196 197 198 199 199 199 199 201 200 196 202 204 206 203 205 210 212 217 218 221 218 216 215 214 212 210 210 210 215 216 217 220 224 227 228 228 231 229 229 225 220 224 230 233 238 225 236 228 239 230 209 205 208 224 224 218 219 230 238 241 261 251 261 235 233 246 222 248 250 218 234 260 261 237 220 228
184 185 187 191 195 195 194 194 195 196 196 197 199 199 199 199 199 200 200 204 207 208 209 208 210 214 219 220 222 218 218 218 215 211 211 212 213 214 214 216 219 224 229 230 231 231 231 231 228 227 228 234 233 235 232 228 230 242 239 195 209 212 224 228 227 221 232 239 252 250 256 250 245 245 237 221 225 246 247 185 245 257 267 268 246
184 186 189 193 194 192 192 192 193 193 196 199 200 199 199 199 199 201 203 205 205 206 208 211 212 215 219 220 222 220 221 222 216 208 207 212 212 214 217 220 222 227 232 237 236 232 231 231 233 233 232 232 232 231 232 231 229 234 248 211 212 209 217 224 224 226 232 241 242 249 256 254 244 239 244 239 242 253 247 219 243 260 283 266 267
184 186 192 194 191 189 189 193 191 194 198 199 198 199 200 199 201 203 205 205 205 205 205 210 214 216 218 219 219 220 222 225 217 204 209 210 209 214 216 220 219 225 228 234 241 238 235 231 237 234 231 233 233 231 230 230 232 235 241 241 228 217 217 221 229 229 236 238 248 248 249 264 259 251 251 257 244 231 235 227 237 256 252 267 278
184 188 192 187 186 187 190 189 192 196 195 199 199 199 198 199 203 205 205 206 207 204 208 211 214 217 220 220 222 221 224 224 217 210 209 210 209 215 216 218 219 222 227 230 238 239 239 236 231 232 230 230 227 228 229 232 233 236 239 242 240 235 231 230 238 243 234 243 246 243 251 257 265 254 254 251 255 251 228 223 215 225 243 248 256
182 187 186 186 187 187 186 189 193 195 197 199 198 196 199 202 205 206 207 208 206 207 211 211 214 215 218 221 224 224 227 219 215 213 211 208 210 213 225 223 222 226 227 230 235 239 240 241 241 236 238 231 230 231 235 233 225 231 236 241 246 242 239 238 236 240 249 252 258 259 244 256 261 256 242 249 246 256 239 220 208 221 233 253 258
182 186 186 188 187 186 187 189 194 198 197 197 197 198 200 204 206 206 208 207 209 212 212 214 215 214 216 219 224 226 226 223 211 211 211 209 208 206 224 226 228 232 232 232 232 234 235 237 241 245 238 233 228 228 229 234 239 224 224 227 236 244 240 237 238 242 244 249 254 260 255 236 251 254 247 236 242 245 244 240 203 218 238 271 280
180 184 187 187 186 187 189 191 196 197 197 197 198 201 202 205 206 206 205 206 208 211 212 214 217 216 217 218 221 224 224 221 213 210 211 209 207 201 218 224 231 234 235 235 235 235 234 233 237 243 245 239 233 226 225 228 231 233 236 235 232 238 234 227 219 219 222 231 244 249 256 252 252 255 252 242 241 245 243 264 354 21 43 283 257
182 184 188 188 188 189 188 193 197 198 198 198 200 203 203 205 206 206 208 212 213 215 218 218 219 219 219 219 222 229 227 215 212 212 209 208 199 197 208 219 226 233 237 237 237 236 234 232 236 240 245 243 237 224 225 230 236 242 246 247 254 252 243 230 229 225 221 223 229 238 246 249 250 253 249 243 249 254 357 41 135 137 180 238 255
186 188 189 188 188 189 191 193 197 199 197 198 201 203 204 206 209 205 209 211 210 211 217 213 218 220 220 219 222 229 232 218 210 211 209 200 188 198 202 214 224 230 237 237 239 238 235 232 232 240 242 244 238 224 221 218 239 244 245 248 255 260 259 255 226 223 224 228 235 238 243 249 254 257 259 259 258 283 65 295 248 161 212 246 256
188 187 190 189 190 190 192 194 197 199 197 200 202 204 206 207 209 204 206 208 211 212 211 217 219 219 220 220 219 225 232 223 209 212 209 196 191 190 199 207 223 229 237 239 239 241 239 233 233 238 243 246 240 225 219 207 221 235 242 242 249 258 261 254 254 234 221 231 238 243 248 254 261 267 271 265 256 98 191 244 242 138 228 237 256
187 190 193 192 191 191 193 195 198 197 198 202 202 204 205 206 207 203 205 209 214 213 214 217 220 221 218 221 219 221 229 228 210 210 207 199 193 206 203 211 224 230 232 241 239 241 244 238 231 235 241 245 242 233 222 203 216 222 236 239 247 256 257 260 261 261 247 239 256 253 264 257 254 258 265 262 237 167 202 225 237 204 235 246 249
191 193 192 191 191 192 193 196 198 197 200 204 204 207 206 207 205 199 205 207 213 212 213 214 219 221 218 219 218 215 222 229 217 207 205 200 194 199 207 213 225 229 229 233 244 241 240 243 234 230 235 241 244 240 233 212 214 228 228 233 236 249 260 268 260 262 272 256 265 265 261 260 258 254 255 257 216 183 205 218 224 219 226 244 244
191 194 193 191 192 193 194 196 198 201 202 204 204 206 203 205 204 201 202 203 211 215 213 214 218 224 219 219 219 217 216 222 224 202 205 199 197 197 211 217 223 226 228 229 231 241 243 235 237 234 230 233 237 239 239 231 224 232 235 232 232 233 291 272 273 271 278 278 273 268 277 283 277 270 261 260 250 214 204 208 217 215 218 230 239
188 191 191 194 194 195 196 198 199 201 204 201 201 207 206 205 203 202 202 204 208 213 214 215 219 222 222 219 220 221 215 212 224 203 200 200 197 200 209 218 217 220 228 234 232 238 240 239 241 236 233 235 238 242 243 244 237 232 241 241 251 121 206 259 272 295 280 278 279 276 277 274 274 272 269 270 269 256 235 210 211 216 214 220 223
162 174 186 195 199 198 197 197 198 200 203 201 200 205 203 202 203 199 201 203 206 212 213 212 215 221 223 222 221 219 217 212 213 211 199 199 200 202 211 220 213 212 221 233 230 238 239 239 244 246 246 246 247 248 250 249 243 227 242 251 244 143 174 230 270 271 267 268 269 274 275 274 277 276 271 270 268 265 263 247 226 216 220 224 225
150 164 180 191 197 201 199 199 200 202 203 200 200 204 202 201 201 198 199 200 203 210 212 210 211 218 221 224 219 219 215 216 209 211 201 199 202 204 212 221 218 213 218 232 234 233 241 244 250 56 68 80 161 208 222 213 218 231 226 237 134 142 192 194 208 246 259 265 255 260 263 263 265 267 271 274 277 285 281 274 268 253 242 239 237
150 157 173 189 197 204 202 200 200 202 204 198 198 202 203 195 199 199 194 198 201 205 209 203 207 213 219 222 222 217 215 213 217 208 205 198 204 208 213 217 222 222 228 235 239 238 87 95 90 99 107 110 116 124 136 181 207 224 223 211 127 157 178 185 203 229 240 246 250 252 264 264 269 281 298 299 300 300 288 282 277 274 273 266 261
149 164 169 179 198 203 205 210 206 204 203 198 199 199 198 194 197 194 192 198 199 202 205 201 206 209 213 221 220 220 212 213 217 204 197 206 209 213 213 216 220 221 225 253 290 68 100 96 124 132 132 119 132 110 158 138 179 195 160 145 135 142 168 184 213 225 243 247 253 267 279 300 301 308 305 300 299 298 304 302 300 291 278 274 274
141 144 173 186 186 186 196 204 206 207 203 198 198 198 196 194 192 189 191 192 194 198 198 198 200 197 210 211 217 215 213 211 211 208 176 187 200 206 214 231 234 237 235 239 250 252 219 200 165 169 179 172 140 123 114 132 122 98 92 104 109 139 161 186 203 219 240 276 297 302 312 312 315 313 312 314 306 301 304 303 300 295 297 292 284
141 154 172 178 177 181 186 192 185 181 176 177 191 192 178 180 179 185 188 191 189 193 191 197 198 198 205 206 209 212 213 212 208 202 193 191 199 191 190 196 193 191 205 215 208 220 218 183 175 160 130 115 115 103 89 74 73 72 66 62 66 90 119 151 214 233 255 286 301 308 308 313 312 316 318 317 315 312 316 314 310 304 303 304 297
80 86 141 157 160 165 165 163 147 127 91 74 61 51 4 355 134 119 26 219 194 183 193 198 200 200 200 199 196 213 214 209 220 206 205 195 190 179 185 198 194 193 207 165 122 135 130 126 120 121 109 113 101 94 78 71 62 70 84 83 78 75 67 73 90 78 314 305 297 303 305 313 311 315 315 308 307 308 311 310 305 302 302 296 287
59 36 18 68 129 131 122 114 110 113 112 103 105 73 59 62 19 30 143 120 83 196 187 195 198 188 185 171 212 211 218 220 100 128 142 151 164 184 179 162 172 147 144 153 146 129 139 129 124 118 117 102 98 89 83 77 99 92 72 70 72 67 67 76 71 51 330 291 292 291 295 297 298 300 303 299 300 301 305 304 297 299 296 294 293
73 39 44 66 149 128 123 119 118 122 126 129 118 115 106 59 48 40 37 31 24 42 52 91 196 182 170 159 78 42 79 113 119 114 107 104 105 102 112 128 132 134 137 125 100 118 124 112 103 93 89 91 91 102 105 103 75 68 65 69 64 55 57 57 39 16 14 352 328 314 304 304 301 308 304 302 299 298 299 297 295 297 294 294 293
91 82 77 129 137 128 122 124 129 132 136 136 132 134 122 110 62 40 46 57 58 55 44 37 42 74 101 119 128 72 50 66 92 97 99 100 96 92 87 89 91 87 65 69 87 70 73 91 89 89 101 96 98 101 101 86 71 63 61 65 55 43 37 34 17 19 13 357 341 329 326 321 318 312 306 300 294 295 298 305 306 303 302 300 296
97 99 83 116 125 124 124 131 138 139 141 140 142 140 137 130 117 100 57 67 69 62 54 57 62 64 73 74 85 110 117 103 90 86 89 95 94 92 89 86 93 103 89 78 86 79 65 63 59 59 68 86 88 83 77 73 71 67 55 51 47 39 34 20 10 18 6 354 339 341 340 337 332 326 320 318 312 313 314 315 317 312 310 303 302
83 94 103 112 117 120 126 136 137 139 141 142 144 140 127 123 130 125 119 109 73 58 53 49 64 80 71 79 88 92 99 101 97 96 95 92 94 92 90 87 81 78 92 108 99 102 98 101 101 96 55 51 67 75 69 67 69 69 61 53 46 37 29 16 19 13 8 5 2 356 350 344 343 342 334 326 323 320 322 324 325 323 322 319 315
70 83 93 101 108 113 125 127 128 129 126 117 113 118 117 120 116 117 116 107 96 82 70 51 36 48 70 71 78 84 85 85 86 88 86 83 87 94 87 78 75 67 65 72 93 95 98 94 88 88 101 82 64 69 74 68 62 56 51 45 40 31 15 12 4 352 347 345 343 347 345 345 351 341 333 331 333 338 335 333 330 329 327 325 324
79 86 84 93 98 104 110 117 117 113 113 104 99 95 96 96 92 96 95 91 92 97 88 73 78 65 68 58 59 72 73 70 70 70 71 65 56 67 71 65 69 60 71 70 76 77 77 88 82 78 75 73 72 69 66 61 52 48 45 45 36 17 5 360 353 349 349 342 336 339 347 349 342 339 338 336 337 336 334 337 333 330 326 326 323
83 82 85 88 93 93 92 87 84 88 92 96 96 96 91 85 80 83 87 92 95 93 96 102 91 76 65 61 62 66 70 74 69 64 65 67 64 63 70 74 78 71 68 63 62 66 68 64 82 80 67 73 64 60 60 57 52 51 45 39 14 356 359 350 349 352 353 348 343 351 351 335 328 331 339 339 338 338 336 335 333 329 328 322 320
82 86 93 100 99 98 99 100 100 97 92 90 88 94 95 94 90 76 75 77 77 83 78 73 69 70 77 72 52 71 70 66 64 55 50 53 57 64 69 65 61 62 60 54 51 52 54 60 59 66 59 61 61 54 58 58 58 58 42 19 355 357 317 329 348 360 1 358 355 355 338 330 330 334 340 341 331 336 337 340 342 341 337 337 340
83 75 78 85 95 104 108 105 100 99 94 90 88 86 88 92 89 80 70 72 70 71 76 67 56 54 50 58 68 66 72 65 70 70 64 62 63 64 65 66 67 66 62 60 56 54 51 55 58 58 56 52 57 55 54 61 65 64 43 42 28 24 19 19 5 3 8 7 358 351 342 325 329 335 336 329 332 330 332 343 346 344 345 344 345
91 86 77 85 93 92 105 103 104 97 98 99 93 92 85 81 85 89 89 83 73 67 72 74 67 48 35 29 51 77 75 71 71 73 71 65 59 54 55 53 52 48 47 41 35 33 50 61 58 54 51 52 49 49 47 43 44 33 33 36 35 30 21 11 9 12 9 1 351 340 331 333 337 336 336 340 337 329 332 338 343 345 350 348 348
79 80 74 67 86 98 82 88 92 94 98 94 97 96 94 94 94 95 89 84 81 77 67 61 58 48 47 55 52 64 76 70 66 65 61 63 57 54 51 47 44 41 40 37 32 31 37 45 41 40 37 33 32 34 37 36 29 30 30 28 32 27 14 16 17 13 2 344 332 340 336 343 343 350 343 338 333 332 334 332 337 342 349 347 355
95 93 85 81 74 86 89 83 83 86 83 86 87 94 98 96 95 93 95 92 87 83 82 78 66 62 48 52 56 60 68 65 64 64 60 57 58 56 53 52 45 43 41 38 34 37 36 38 39 37 38 30 20 16 18 23 17 19 22 17 14 13 16 9 360 351 349 350 346 338 341 346 346 339 335 334 338 338 339 344 347 353 357 354 354
87 87 88 84 82 76 79 84 85 92 93 93 93 91 93 96 96 95 91 91 92 90 87 82 77 71 57 44 56 60 66 61 62 61 60 59 59 57 51 45 43 42 43 41 39 37 40 43 43 38 38 35 27 20 18 18 17 13 12 11 7 6 356 346 342 346 340 342 342 328 334 345 350 342 341 343 344 342 344 346 354 3 356 356 358
89 88 85 81 85 83 76 92 95 94 96 97 97 92 89 90 93 96 93 91 90 89 88 84 84 78 69 49 50 58 63 59 59 59 60 61 61 60 53 46 40 42 41 40 38 36 37 38 38 38 39 37 32 29 24 18 18 19 12 11 3 356 349 344 340 337 330 322 324 325 322 329 338 340 340 340 347 348 350 356 358 1 360 7 1
94 94 93 91 84 84 83 75 99 103 103 100 96 95 93 93 94 96 96 93 90 87 83 82 83 81 74 66 60 63 63 64 61 61 57 56 57 54 48 45 41 39 39 39 35 34 37 36 35 33 33 31 29 30 28 25 22 20 21 13 7 352 342 334 327 320 312 306 309 316 308 311 324 335 328 337 337 348 349 355 356 349 358 2 7
95 93 91 93 94 93 91 84 81 86 87 88 95 98 98 94 93 92 92 93 90 87 83 79 78 75 72 68 66 64 65 65 64 63 62 57 56 52 52 49 47 46 46 42 37 37 37 37 34 33 29 26 23 23 22 24 25 22 18 13 357 342 328 320 315 311 309 310 309 305 305 299 283 284 281 303 323 351 343 336 333 343 340 350 12
93 91 94 97 99 99 94 89 86 85 86 88 91 100 98 96 92 91 90 91 90 88 84 82 79 76 76 76 74 73 71 69 70 64 63 59 54 51 52 53 56 55 50 49 44 40 41 40 34 35 32 29 24 23 18 16 19 16 12 2 356 345 337 327 314 307 308 308 305 295 296 292 286 282 286 280 270 151 298 309 306 314 313 330 336
102 95 90 89 93 95 94 94 92 87 84 85 83 87 95 97 94 91 93 90 88 87 87 84 81 83 83 79 78 78 75 75 72 69 66 62 60 58 55 55 57 59 59 54 49 43 39 37 33 30 31 29 26 21 19 14 11 3 1 359 356 347 335 334 323 318 318 314 298 290 287 285 282 275 271 267 274 256 226 253 278 280 297 309 335
95 99 98 90 82 85 92 92 90 88 88 90 86 82 82 79 79 79 78 78 79 76 78 78 79 77 76 75 73 72 71 71 69 66 63 57 55 53 52 50 50 50 50 48 42 37 33 30 28 27 26 27 26 21 19 17 13 9 358 358 346 340 337 343 337 338 323 311 306 304 293 282 282 282 274 259 255 249 253 228 211 256 271 277 279
83 87 91 93 92 89 87 89 90 90 87 85 85 85 80 80 79 77 77 77 74 73 72 74 73 71 71 71 68 66 66 65 63 60 56 52 50 50 48 47 47 47 48 48 44 37 34 32 27 24 20 18 15 15 12 12 8 358 355 351 348 347 349 348 346 345 344 330 314 301 298 306 305 295 287 272 268 262 261 256 250 207 217 251 252
92 85 80 79 86 86 86 87 88 84 81 84 84 85 84 82 80 79 78 77 76 77 77 76 77 76 74 71 72 69 67 63 59 53 51 48 49 49 50 50 50 51 51 50 45 41 36 33 28 25 21 17 13 9 6 4 8 359 353 353 357 356 357 357 353 341 340 333 289 305 326 331 331 318 310 301 288 278 274 272 258 255 235 219 231